GEFSCGP_con_probscp_258.txt.gz
Probability
0 0 0 0 0 0 0 0 0 0 0 0 1 4 6 4 4 6 7 8 10 11 11 8 3 3 12 24 30 28 23 19 17 15 13 12 12 12 14 16 16 15 14 13
0 0 0 0 0 0 0 0 0 0 0 0 2 5 5 4 4 5 7 8 9 11 12 11 7 6 13 24 28 26 21 19 18 16 13 11 10 11 13 16 18 18 15 14
0 0 0 0 0 0 0 0 0 0 0 0 2 5 6 5 4 5 7 8 10 11 14 15 14 12 16 22 25 25 24 23 21 17 13 10 9 10 12 17 22 22 18 16
0 0 0 0 0 0 0 0 0 0 0 0 1 4 7 7 6 6 7 8 10 13 16 17 17 17 17 20 24 30 33 31 26 19 14 12 12 12 13 17 21 23 21 19
0 0 0 0 0 0 0 0 0 0 0 0 0 3 8 10 8 7 7 7 10 14 16 17 18 17 16 18 26 36 41 38 31 24 20 18 16 15 15 16 17 19 22 22
0 0 0 0 0 0 0 1 1 1 1 0 0 2 8 12 10 8 7 7 10 14 17 18 20 20 18 18 25 36 44 44 36 28 24 22 20 18 17 16 16 19 22 23
0 0 0 0 0 0 0 1 2 2 1 0 0 3 8 10 9 8 7 8 10 15 19 22 25 25 21 19 23 35 47 48 40 29 23 22 22 20 16 15 17 21 23 22
0 0 0 0 0 0 0 0 1 1 1 0 1 4 7 9 10 9 9 10 12 16 21 26 27 26 22 21 25 35 46 49 41 30 25 23 22 21 17 16 19 21 21 20
0 0 0 0 0 0 0 0 0 0 0 0 2 4 8 10 12 13 13 14 13 15 20 25 26 23 22 25 29 36 43 46 40 32 29 27 27 26 23 22 22 21 19 18
0 0 0 0 0 0 0 1 1 1 1 0 1 3 8 11 13 16 18 17 15 15 18 21 22 22 23 29 33 37 42 44 40 36 33 32 32 32 30 28 26 24 21 19
0 0 0 0 0 0 0 0 0 1 2 1 0 2 7 11 14 18 20 20 18 18 19 21 22 23 27 32 38 42 46 47 45 42 38 36 36 37 36 32 29 27 25 24
0 0 0 0 0 0 0 0 0 1 2 1 1 3 6 10 15 20 23 23 20 19 20 24 27 29 33 39 44 49 51 51 50 47 43 41 39 39 37 32 29 28 28 27
0 0 0 0 0 0 0 0 0 0 1 0 1 3 7 13 19 24 27 26 24 23 26 33 38 40 43 46 51 54 54 52 50 48 47 47 46 43 38 32 29 29 28 28
0 0 0 0 0 0 0 0 0 0 0 0 1 4 9 15 21 26 29 31 30 30 37 46 52 53 53 53 54 55 52 51 51 50 49 51 51 48 42 36 33 31 29 27
0 0 0 0 0 0 0 0 0 0 1 1 2 7 13 19 23 28 31 35 38 40 46 56 61 61 58 58 57 55 54 54 54 54 52 52 52 50 46 42 39 35 31 28
0 0 0 0 0 0 0 0 0 1 1 2 5 12 19 25 30 32 35 40 44 46 51 58 63 63 64 64 62 59 59 61 61 60 57 55 52 50 48 44 40 37 33 30
2 2 1 0 0 0 0 0 1 2 2 3 8 16 24 30 36 38 39 44 48 48 53 60 63 65 68 69 67 65 65 67 68 66 63 59 56 53 48 43 40 38 36 34
4 3 1 0 0 0 0 0 2 5 6 7 11 18 25 31 38 41 43 47 49 50 55 60 63 66 68 69 69 68 68 69 70 67 63 61 60 56 49 44 41 41 40 39
3 2 1 1 0 0 0 1 3 7 10 12 14 20 26 31 37 40 44 50 53 55 58 60 60 63 65 66 66 66 65 65 65 63 60 58 57 53 48 44 43 42 42 42
1 1 1 1 1 1 2 2 3 8 13 15 17 22 28 33 37 41 48 54 57 58 59 59 59 60 62 64 64 63 61 60 59 57 54 52 52 50 46 44 43 41 40 40
0 0 1 1 2 3 4 4 8 15 21 21 21 24 29 35 42 48 54 58 58 57 57 58 58 59 61 62 62 61 60 57 54 49 46 45 46 45 41 41 41 38 36 34
1 1 2 3 6 9 12 15 22 30 32 27 25 28 32 38 45 50 53 57 58 57 56 57 58 58 59 60 60 59 57 53 48 43 39 37 39 37 34 35 34 33 31 30
4 5 8 11 14 18 23 28 34 36 32 28 28 31 36 41 44 45 48 52 55 56 55 55 55 54 54 55 55 54 51 46 43 39 35 32 31 30 30 29 28 28 27 26
5 8 12 16 18 21 24 27 29 29 27 27 29 33 39 42 42 42 44 47 50 50 49 48 48 49 49 49 48 46 44 41 38 35 31 27 24 24 24 25 25 24 22 21
6 8 13 17 19 20 21 21 22 25 27 29 31 36 41 42 42 41 44 46 46 45 43 42 42 42 43 43 42 40 40 39 36 32 27 22 19 17 18 19 19 17 15 14
6 9 13 17 21 24 23 21 21 24 29 31 34 38 41 42 42 41 43 46 45 42 42 41 39 37 38 39 39 38 38 38 35 30 24 20 17 15 15 15 13 11 9 8

GEFSCGP_con_probscp_264.txt.gz
Probability
0 0 0 0 0 0 0 0 1 1 1 1 0 1 4 7 7 7 7 5 5 6 7 7 7 7 6 4 2 1 0 0 1 0 1 2 2 2 3 4 4 5 6 7
0 0 0 0 0 0 0 0 1 1 0 0 1 2 4 5 6 8 7 5 4 6 7 8 9 9 8 5 2 1 0 0 1 1 1 1 1 1 2 3 3 4 5 6
0 0 0 0 0 0 0 0 0 0 0 1 2 4 5 4 5 7 6 4 4 6 8 10 12 12 10 7 3 2 1 2 1 1 2 1 0 0 1 2 3 4 6 7
0 0 0 0 0 0 0 0 0 0 0 1 2 3 5 4 4 5 5 5 6 6 8 9 11 13 12 10 7 6 5 5 4 4 4 3 1 0 1 2 3 6 8 10
0 0 0 0 0 0 0 0 0 0 0 0 1 2 3 3 3 4 5 6 8 8 7 7 8 11 13 12 11 11 9 8 7 7 6 4 2 1 3 4 4 5 8 9
0 0 0 0 0 0 0 1 0 0 0 0 0 1 2 2 2 4 5 6 8 9 8 7 7 10 13 13 12 13 11 8 6 7 6 5 3 4 5 6 6 6 7 8
0 0 0 0 0 0 0 0 0 0 0 0 0 0 1 1 1 2 5 7 8 8 7 9 10 11 11 11 12 14 12 8 5 6 7 7 7 7 7 8 8 9 8 6
0 0 0 0 0 0 0 0 0 0 0 0 0 0 0 0 0 1 5 9 9 8 8 11 12 10 9 10 14 17 15 10 8 8 10 11 11 10 9 9 10 9 6 4
0 0 0 0 1 1 0 0 0 0 0 0 0 0 0 0 0 1 6 12 12 9 10 13 13 12 10 11 15 19 18 15 14 14 15 15 14 12 11 11 10 6 4 3
0 0 0 0 1 2 1 0 0 0 0 0 0 0 0 0 0 2 7 12 12 10 12 15 15 13 13 14 15 19 22 21 19 19 19 17 15 14 14 15 11 5 2 2
0 0 0 0 1 2 1 0 0 0 0 0 0 0 1 1 2 4 7 12 12 10 11 13 13 14 15 16 17 20 23 23 21 22 21 19 17 17 17 17 13 7 3 2
0 0 0 0 1 1 1 0 0 0 0 0 0 1 2 4 6 8 11 15 16 15 14 13 14 16 18 19 20 22 22 23 24 25 25 23 20 18 16 15 12 8 5 5
0 0 0 0 0 0 0 0 0 0 0 0 0 1 4 7 10 12 15 20 23 23 22 18 16 18 20 22 24 24 24 26 28 30 31 28 22 17 15 13 11 8 7 7
0 0 0 0 0 0 0 0 0 0 0 0 1 4 8 11 13 15 18 22 25 27 28 25 21 22 23 25 27 28 29 31 34 36 36 31 24 20 17 13 11 9 8 8
0 0 0 0 0 0 0 0 0 0 1 2 4 7 11 15 17 19 22 25 27 28 30 30 28 26 27 30 32 33 35 38 40 40 38 32 26 22 18 14 11 10 8 7
0 0 0 0 0 0 0 0 1 1 3 5 8 11 15 19 21 23 28 34 35 36 36 36 35 34 32 34 37 40 43 43 42 40 37 31 25 22 20 17 15 12 10 9
0 0 0 0 0 0 1 1 2 4 5 7 11 16 20 23 24 27 35 42 44 44 43 42 42 40 37 38 43 46 48 47 43 39 35 31 27 25 24 23 21 18 16 15
0 0 0 0 0 0 1 2 3 4 6 9 15 22 25 27 28 33 40 46 47 46 43 42 42 42 41 42 46 49 50 49 46 41 36 32 30 29 28 26 25 23 22 20
0 0 0 0 0 0 0 2 3 4 7 12 19 26 30 33 36 39 42 45 45 43 41 39 41 44 46 46 48 51 52 50 47 41 37 33 29 28 27 26 25 24 22 21
1 0 0 0 0 0 2 3 3 5 9 15 21 26 31 34 37 38 38 42 44 43 41 41 44 48 50 49 48 50 50 48 43 39 35 30 25 23 22 23 23 22 21 21
1 0 0 0 0 2 4 4 4 5 9 16 23 27 30 31 30 30 33 38 43 44 42 43 45 49 50 49 47 46 45 42 38 34 30 26 21 18 18 20 20 19 19 19
1 0 0 0 2 4 6 7 6 6 10 17 24 29 31 30 27 27 30 35 38 40 41 42 42 44 45 46 45 42 39 35 29 25 24 22 18 16 16 17 18 17 16 16
1 0 1 3 6 8 9 10 10 10 12 18 24 29 32 32 30 28 28 29 31 34 37 40 40 41 41 42 41 37 32 25 19 17 17 15 14 13 14 14 15 15 15 15
2 1 3 7 11 12 12 12 14 15 17 22 27 30 33 33 31 28 26 26 27 30 32 34 36 37 37 36 35 31 24 19 15 13 11 9 9 11 12 11 11 12 13 13
3 3 5 8 11 12 13 14 15 18 22 26 28 30 32 31 29 27 25 25 25 25 25 26 27 28 28 29 28 24 19 16 14 11 8 6 6 9 10 9 8 9 10 11
3 4 5 7 8 11 13 14 16 19 23 26 27 29 31 29 26 24 24 24 23 22 21 21 21 21 22 24 24 19 16 16 14 10 6 6 6 7 9 8 7 7 8 8

GEFSCGP_con_probscp_270.txt.gz
Probability
0 0 0 0 0 0 0 0 0 0 0 0 1 2 4 5 4 3 3 3 3 3 3 2 2 2 1 1 0 0 0 0 0 0 0 0 0 0 0 1 1 1 0 0
0 0 0 0 0 0 0 0 0 0 0 0 0 1 2 4 4 3 2 1 2 3 3 2 1 2 2 1 0 0 0 0 0 0 0 0 0 0 0 0 0 0 0 1
0 0 0 0 0 0 0 0 0 0 0 0 0 0 0 2 3 3 1 0 1 2 2 1 2 2 2 1 0 0 0 1 1 0 0 0 0 0 0 0 0 0 0 1
0 0 0 0 0 0 0 0 0 0 0 0 0 0 0 0 1 2 2 1 1 2 2 2 3 3 3 2 1 0 1 2 2 1 1 0 0 0 0 0 0 0 0 1
0 0 0 0 0 0 0 0 0 0 0 0 0 0 0 0 0 1 1 1 1 1 2 2 3 4 4 4 3 1 1 2 3 3 2 1 1 0 0 0 0 0 0 0
0 0 0 1 1 0 0 0 0 0 0 0 0 0 0 0 0 0 0 1 1 2 2 3 3 5 6 6 5 3 1 2 3 3 3 3 2 1 1 1 1 0 1 1
0 0 1 2 2 1 0 0 0 0 0 0 0 0 0 0 0 0 0 1 3 4 4 3 3 5 7 7 5 3 1 1 3 3 4 4 4 3 2 2 2 1 2 2
0 0 1 2 2 1 0 0 0 0 0 0 0 0 0 0 0 0 1 3 4 5 5 3 3 4 6 6 5 2 1 1 3 4 4 5 5 4 3 3 2 1 2 2
0 0 1 1 1 0 0 0 0 0 0 0 0 0 0 0 0 1 3 5 5 6 4 2 1 1 3 4 5 4 4 4 4 4 4 4 3 3 2 1 1 1 1 2
0 0 1 1 1 1 0 0 0 0 0 0 0 0 0 0 0 2 5 6 5 6 4 2 1 1 2 3 4 6 7 7 6 5 4 3 2 2 2 2 3 3 3 2
0 1 2 2 2 1 0 0 0 0 0 0 0 0 0 0 1 3 5 5 4 5 4 2 2 3 3 4 3 5 8 8 6 4 3 2 2 3 4 5 5 5 4 3
0 1 2 3 2 0 0 0 0 0 0 0 0 0 0 1 2 4 5 5 4 3 2 2 3 5 6 6 5 5 7 7 4 2 1 1 2 3 5 5 5 4 4 4
0 1 2 2 1 0 0 0 0 0 0 0 0 0 1 3 4 4 4 4 5 4 3 3 4 6 7 7 7 8 7 7 4 3 2 3 4 4 3 3 3 4 4 4
0 0 1 1 1 0 0 0 1 1 0 0 0 1 2 4 4 4 4 6 7 7 7 6 6 7 9 9 10 11 10 7 4 4 5 7 7 6 5 4 4 5 4 4
0 0 0 0 0 0 1 1 2 2 1 1 1 2 3 4 5 6 8 9 10 10 9 9 10 10 11 12 11 11 10 8 8 8 8 9 9 9 8 8 7 6 6 6
0 0 0 0 0 0 1 2 3 4 3 3 3 3 4 7 10 11 12 12 11 9 10 13 13 13 12 13 13 13 13 14 16 15 13 11 10 11 11 10 9 8 8 9
0 0 0 0 0 0 1 2 3 4 4 4 5 5 7 12 15 15 13 11 10 10 12 15 15 13 13 16 18 20 23 26 25 22 17 14 14 14 13 11 9 10 10 11
0 0 0 0 0 0 0 1 2 2 2 2 4 6 9 14 16 15 14 11 11 13 16 17 17 17 17 20 24 28 32 36 33 26 19 17 17 17 15 12 10 11 12 12
0 0 0 0 0 0 0 0 1 2 1 1 3 7 12 15 15 14 14 13 13 17 20 21 22 22 22 24 27 30 34 38 37 30 23 21 20 19 17 14 12 12 12 13
0 0 0 0 0 0 0 1 2 2 2 3 5 10 15 17 15 15 15 16 18 20 22 24 25 24 24 26 29 31 34 37 35 30 27 26 24 22 19 16 13 12 13 13
0 0 0 0 0 0 0 2 3 2 2 5 9 13 15 15 14 15 18 20 22 24 25 26 27 27 27 28 31 32 33 33 30 27 26 25 23 22 19 16 13 12 13 14
0 0 0 0 0 0 1 3 3 2 3 7 10 12 12 12 13 16 21 26 27 28 29 30 30 30 29 29 30 32 30 27 25 22 20 18 17 18 17 15 12 12 14 15
0 0 0 1 1 2 3 5 5 5 7 9 11 13 13 12 14 18 23 27 29 29 30 30 29 29 29 29 29 29 27 23 20 18 16 13 12 12 12 12 12 14 15 15
0 0 0 2 3 4 6 7 8 9 11 13 15 18 19 17 18 20 22 24 26 26 26 25 25 25 26 26 26 26 25 21 18 15 12 10 9 8 8 9 10 11 12 12
0 0 0 1 2 5 6 7 10 13 15 18 21 23 23 21 20 20 20 20 21 21 20 20 21 23 23 22 21 22 21 17 15 13 10 8 7 6 7 7 7 6 6 7
0 0 0 0 1 4 6 6 10 14 16 19 23 25 23 20 20 20 18 17 16 16 17 17 19 21 22 19 17 17 17 14 14 13 10 7 6 6 6 6 5 4 3 3

GEFSCGP_con_probscp_276.txt.gz
Probability
0 0 0 0 0 0 0 0 0 0 0 0 0 0 1 3 4 3 3 3 5 8 8 6 6 6 5 4 3 2 2 2 2 1 1 2 2 2 2 1 1 1 1 0
0 0 0 0 0 0 0 0 0 0 0 0 0 0 1 3 3 3 3 3 5 7 7 6 5 5 4 4 2 2 3 3 3 2 2 2 1 1 1 0 0 0 0 0
0 0 0 0 0 0 0 0 0 0 0 0 0 0 1 2 3 3 3 4 5 6 6 6 5 4 4 3 2 1 3 4 4 4 3 3 2 1 1 1 1 1 1 0
0 0 0 0 0 0 0 0 0 0 0 0 0 0 0 1 2 3 4 5 6 7 7 6 5 5 5 5 2 2 3 4 5 4 4 5 4 3 3 3 3 2 2 1
0 0 0 0 0 0 0 0 0 0 0 0 0 0 0 0 1 2 3 6 9 11 9 7 5 5 6 6 5 4 5 5 5 5 6 6 6 4 4 5 4 3 3 3
0 0 0 0 0 0 1 1 1 1 0 0 0 0 0 0 0 1 3 7 11 12 11 8 7 7 8 8 8 8 8 8 7 7 8 8 7 7 6 6 4 3 3 4
0 0 0 0 0 1 1 2 2 1 0 0 0 0 0 1 1 2 4 8 11 11 9 8 8 9 10 10 10 9 10 9 9 9 9 9 8 8 8 6 5 4 4 5
0 0 0 0 0 1 1 1 1 1 0 0 0 0 1 2 3 3 5 9 11 10 7 7 8 10 12 12 10 10 10 10 10 10 10 10 8 8 8 7 6 6 6 5
0 0 0 0 0 0 0 0 0 0 0 0 0 0 1 2 3 3 5 10 12 11 7 6 7 10 11 11 9 8 10 11 11 10 9 10 10 10 10 10 9 8 7 5
0 0 0 0 1 1 0 0 0 0 0 0 0 0 1 3 4 5 8 11 12 10 7 6 7 8 9 9 9 8 9 11 11 9 8 8 10 13 13 11 10 9 8 7
0 0 0 1 2 1 0 0 0 0 0 0 0 1 2 3 5 8 11 11 11 9 5 4 5 5 7 10 12 13 11 11 11 9 6 6 9 12 12 10 9 8 8 8
0 0 1 2 3 2 0 0 0 0 0 0 0 1 2 3 6 9 11 12 10 8 6 6 6 7 10 14 18 18 16 13 11 9 7 7 9 10 11 10 9 8 7 7
0 0 1 2 2 1 0 0 0 0 0 0 0 1 3 5 8 11 13 13 12 10 9 9 13 16 17 19 22 22 20 15 12 10 9 9 9 9 9 9 8 7 7 7
0 0 1 1 1 1 0 0 0 0 0 0 0 1 4 8 12 17 18 17 16 15 13 14 21 25 24 24 26 25 22 18 15 13 13 12 11 10 9 8 7 7 7 8
0 0 0 0 0 0 0 0 0 0 1 1 2 3 5 10 15 19 20 20 20 21 21 22 26 30 30 30 31 29 24 21 21 21 20 19 16 13 11 8 7 7 7 7
0 0 0 1 1 1 1 0 0 0 1 3 3 3 5 10 14 16 18 20 23 26 28 30 32 33 34 34 34 34 30 28 28 28 26 24 21 17 12 9 7 6 7 7
0 0 1 2 2 2 1 0 0 0 1 3 4 5 6 8 11 13 15 18 21 26 30 35 38 37 36 37 38 39 39 37 34 31 28 27 23 19 14 11 9 8 9 10
1 2 1 1 2 2 1 1 1 1 1 3 5 7 8 7 8 10 13 16 20 26 32 37 40 39 37 38 40 43 44 42 37 33 31 28 25 21 18 17 16 15 16 17
2 3 1 0 1 0 0 1 3 3 3 5 6 7 7 6 6 9 12 14 20 27 32 36 38 39 39 40 41 44 46 43 40 38 36 33 30 28 26 25 24 24 25 24
3 3 1 0 0 0 0 1 3 3 4 7 9 9 9 7 8 13 19 20 22 27 32 33 35 39 42 42 42 46 49 48 46 44 42 39 37 36 34 32 30 30 29 27
1 1 0 0 0 1 1 1 2 4 7 11 12 13 13 12 14 22 30 30 26 27 30 32 36 41 44 44 46 49 52 52 49 46 42 41 40 39 38 36 35 33 30 28
0 0 0 0 1 3 4 4 5 8 12 15 15 15 16 18 22 29 35 34 29 28 29 32 37 41 45 46 48 50 50 49 45 41 38 39 39 38 38 37 36 34 31 28
0 1 2 4 4 7 9 10 10 12 14 15 17 18 19 22 27 33 35 34 33 31 31 34 36 39 43 45 47 48 46 44 40 37 36 37 37 37 36 35 33 30 27 24
2 4 7 9 10 10 12 13 14 16 16 15 18 21 23 26 31 33 34 36 38 38 37 37 36 38 41 43 44 45 45 43 40 37 36 35 35 34 34 33 29 26 22 19
4 7 10 12 14 14 15 16 17 18 18 18 21 25 28 30 34 34 34 37 41 43 41 39 37 37 39 40 39 38 40 42 41 38 35 33 32 31 30 28 24 20 16 13
6 9 12 14 17 18 18 18 20 20 19 19 23 28 30 32 36 35 35 37 41 44 42 39 36 35 37 37 35 34 36 39 40 38 34 31 30 29 27 24 18 13 10 8